Location: Holiday Acres Laynes 2 Mobile Home Park
(26.7249°N, 81.8671°W)
Time: 13:41:22
(UTC+00:00)

CZ-2D R/B - Pass Details

Date: 25 November 2020
Orbit: 520 x 538 km, 97.4° (Epoch: 23 January)

Event Time Altitude Azimuth Distance (km) Brightness Sun altitude
Rises 23:34:46 0° 153° (SSE) 2,632 6.7 -13.5°
Reaches altitude 10° 23:36:56 10° 145° (SE) 1,749 5.7 -14.0°
Maximum altitude 23:40:28 39° 76° (ENE) 793 3.6 -14.7°
Drops below altitude 10° 23:44:02 10° 6° (N) 1,766 5.7 -15.5°
Sets 23:46:13 0° 359° (N) 2,660 6.7 -16.0°
